Time,TemperatureF,DewpointF,PressureIn,WindDirection,WindDirectionDegrees,WindSpeedMPH,WindSpeedGustMPH,Humidity,HourlyPrecipIn,Conditions,Clouds,dailyrainin,SolarRadiationWatts/m^2,SoftwareType,DateUTC
2013-02-05 00:01:00,68.0,58.0,-100.00,WNW,290,5.0,22.0,70,0.00,,,0.01,0.000000,,2013-02-05 10:01:00,
2013-02-05 00:11:00,68.0,58.0,-100.00,WNW,290,5.0,22.0,70,0.00,,,0.01,0.000000,,2013-02-05 10:11:00,
2013-02-05 00:21:00,68.0,58.0,-100.00,WNW,290,5.0,22.0,70,0.00,,,0.01,0.000000,,2013-02-05 10:21:00,
2013-02-05 00:31:00,68.0,58.0,-100.00,WNW,290,5.0,22.0,70,0.00,,,0.01,0.000000,,2013-02-05 10:31:00,
2013-02-05 00:52:00,67.0,60.0,-100.00,SW,216,5.0,22.0,77,0.00,,,0.01,0.000000,,2013-02-05 10:52:00,
2013-02-05 01:01:00,67.0,60.0,-100.00,SW,216,5.0,22.0,77,0.00,,,0.01,0.000000,,2013-02-05 11:01:00,
2013-02-05 01:11:00,67.0,60.0,-100.00,SW,216,5.0,22.0,77,0.00,,,0.01,0.000000,,2013-02-05 11:11:00,
2013-02-05 01:22:00,67.0,60.0,-100.00,SW,216,5.0,22.0,77,0.00,,,0.01,0.000000,,2013-02-05 11:22:00,
2013-02-05 01:32:00,67.0,60.0,-100.00,SW,216,5.0,22.0,77,0.00,,,0.01,0.000000,,2013-02-05 11:32:00,
2013-02-05 01:52:00,67.0,60.0,-100.00,South,189,6.0,29.0,79,0.00,,,0.01,0.000000,,2013-02-05 11:52:00,
2013-02-05 02:01:00,67.0,60.0,-100.00,South,189,6.0,29.0,79,0.00,,,0.01,0.000000,,2013-02-05 12:01:00,
2013-02-05 02:12:00,67.0,60.0,-100.00,South,189,6.0,29.0,79,0.00,,,0.01,0.000000,,2013-02-05 12:12:00,
2013-02-05 02:21:00,67.0,60.0,-100.00,South,189,6.0,29.0,79,0.00,,,0.01,0.000000,,2013-02-05 12:21:00,
2013-02-05 02:31:00,67.0,60.0,-100.00,South,189,6.0,29.0,79,0.00,,,0.01,0.000000,,2013-02-05 12:31:00,
2013-02-05 03:01:00,64.0,58.0,-100.00,ESE,123,8.0,23.0,82,0.00,,,0.01,0.000000,,2013-02-05 13:01:00,
2013-02-05 03:11:00,64.0,58.0,-100.00,ESE,123,8.0,23.0,82,0.00,,,0.01,0.000000,,2013-02-05 13:11:00,
2013-02-05 03:21:00,64.0,58.0,-100.00,ESE,123,8.0,23.0,82,0.00,,,0.01,0.000000,,2013-02-05 13:21:00,
2013-02-05 03:31:00,64.0,58.0,-100.00,ESE,123,8.0,23.0,82,0.00,,,0.01,0.000000,,2013-02-05 13:31:00,
2013-02-05 04:01:00,66.0,57.0,-100.00,SSE,149,7.0,23.0,73,0.00,,,0.01,0.000000,,2013-02-05 14:01:00,
2013-02-05 04:12:00,66.0,57.0,-100.00,SSE,149,7.0,23.0,73,0.00,,,0.01,0.000000,,2013-02-05 14:12:00,
2013-02-05 04:21:00,66.0,57.0,-100.00,SSE,149,7.0,23.0,73,0.00,,,0.01,0.000000,,2013-02-05 14:21:00,
2013-02-05 04:31:00,66.0,57.0,-100.00,SSE,149,7.0,23.0,73,0.00,,,0.01,0.000000,,2013-02-05 14:31:00,
2013-02-05 05:01:00,65.0,56.0,-100.00,SSW,205,5.0,32.0,73,0.00,,,0.01,0.000000,,2013-02-05 15:01:00,
2013-02-05 05:11:00,65.0,56.0,-100.00,SSW,205,5.0,32.0,73,0.00,,,0.01,0.000000,,2013-02-05 15:11:00,
2013-02-05 05:21:00,65.0,56.0,-100.00,SSW,205,5.0,32.0,73,0.00,,,0.01,0.000000,,2013-02-05 15:21:00,
2013-02-05 05:32:00,65.0,56.0,-100.00,SSW,205,5.0,32.0,73,0.00,,,0.01,0.000000,,2013-02-05 15:32:00,
2013-02-05 06:01:00,65.0,56.0,-100.00,SSW,207,5.0,19.0,74,0.00,,,0.01,0.000000,,2013-02-05 16:01:00,
2013-02-05 06:11:00,65.0,56.0,-100.00,SSW,207,5.0,19.0,74,0.00,,,0.01,0.000000,,2013-02-05 16:11:00,
2013-02-05 06:22:00,65.0,56.0,-100.00,SSW,207,5.0,19.0,74,0.00,,,0.01,0.000000,,2013-02-05 16:22:00,
2013-02-05 06:32:00,65.0,56.0,-100.00,SSW,207,5.0,19.0,74,0.00,,,0.01,0.000000,,2013-02-05 16:32:00,
2013-02-05 06:52:00,66.0,56.0,-100.00,West,264,5.0,28.0,69,0.00,,,-99.99,0.000000,,2013-02-05 16:52:00,
2013-02-05 07:01:00,66.0,56.0,-100.00,West,264,5.0,28.0,69,0.00,,,-99.99,0.000000,,2013-02-05 17:01:00,
2013-02-05 07:11:00,66.0,56.0,-100.00,West,264,5.0,28.0,69,0.00,,,-99.99,0.000000,,2013-02-05 17:11:00,
2013-02-05 07:21:00,66.0,56.0,-100.00,West,264,5.0,28.0,69,0.00,,,-99.99,0.000000,,2013-02-05 17:21:00,
2013-02-05 07:32:00,66.0,56.0,-100.00,West,264,5.0,28.0,69,0.00,,,-99.99,0.000000,,2013-02-05 17:32:00,
2013-02-05 08:01:00,67.0,57.0,-100.00,South,184,8.0,19.0,70,0.00,,,0.01,0.000000,,2013-02-05 18:01:00,
2013-02-05 08:11:00,67.0,57.0,-100.00,South,184,8.0,19.0,70,0.00,,,0.01,0.000000,,2013-02-05 18:11:00,
2013-02-05 08:21:00,67.0,57.0,-100.00,South,184,8.0,19.0,70,0.00,,,0.01,0.000000,,2013-02-05 18:21:00,
2013-02-05 08:31:00,67.0,57.0,-100.00,South,184,8.0,19.0,70,0.00,,,0.01,0.000000,,2013-02-05 18:31:00,
2013-02-05 09:02:00,70.0,57.0,-100.00,SW,219,8.0,22.0,64,0.00,,,0.01,6.000000,,2013-02-05 19:02:00,
2013-02-05 09:11:00,70.0,57.0,-100.00,SW,219,8.0,22.0,64,0.00,,,0.01,6.000000,,2013-02-05 19:11:00,
2013-02-05 09:21:00,70.0,57.0,-100.00,SW,219,8.0,22.0,64,0.00,,,0.01,6.000000,,2013-02-05 19:21:00,
2013-02-05 09:31:00,70.0,57.0,-100.00,SW,219,8.0,22.0,64,0.00,,,0.01,6.000000,,2013-02-05 19:31:00,
2013-02-05 10:01:00,73.0,56.0,-100.00,South,191,7.0,18.0,56,0.00,,,0.01,117.000000,,2013-02-05 20:01:00,
2013-02-05 10:11:00,73.0,56.0,-100.00,South,191,7.0,18.0,56,0.00,,,0.01,117.000000,,2013-02-05 20:11:00,
2013-02-05 10:21:00,73.0,56.0,-100.00,South,191,7.0,18.0,56,0.00,,,0.01,117.000000,,2013-02-05 20:21:00,
2013-02-05 10:31:00,73.0,56.0,-100.00,South,191,7.0,18.0,56,0.00,,,0.01,117.000000,,2013-02-05 20:31:00,
2013-02-05 11:01:00,75.0,56.0,-100.00,SSE,154,12.0,25.0,51,0.00,,,0.01,401.000000,,2013-02-05 21:01:00,
2013-02-05 11:11:00,75.0,56.0,-100.00,SSE,154,12.0,25.0,51,0.00,,,0.01,401.000000,,2013-02-05 21:11:00,
2013-02-05 11:21:00,75.0,56.0,-100.00,SSE,154,12.0,25.0,51,0.00,,,0.01,401.000000,,2013-02-05 21:21:00,
2013-02-05 11:31:00,75.0,56.0,-100.00,SSE,154,12.0,25.0,51,0.00,,,0.01,401.000000,,2013-02-05 21:31:00,
2013-02-05 12:01:00,72.0,55.0,-100.00,NW,319,7.0,26.0,55,0.00,,,0.01,917.000000,,2013-02-05 22:01:00,
2013-02-05 12:11:00,72.0,55.0,-100.00,NW,319,7.0,26.0,55,0.00,,,0.01,917.000000,,2013-02-05 22:11:00,
2013-02-05 12:21:00,72.0,55.0,-100.00,NW,319,7.0,26.0,55,0.00,,,0.01,917.000000,,2013-02-05 22:21:00,
2013-02-05 12:31:00,72.0,55.0,-100.00,NW,319,7.0,26.0,55,0.00,,,0.01,917.000000,,2013-02-05 22:31:00,
2013-02-05 13:01:00,74.0,58.0,-100.00,South,175,8.0,23.0,57,0.00,,,0.01,911.000000,,2013-02-05 23:01:00,
2013-02-05 13:11:00,74.0,58.0,-100.00,South,175,8.0,23.0,57,0.00,,,0.01,911.000000,,2013-02-05 23:11:00,
2013-02-05 13:21:00,74.0,58.0,-100.00,South,175,8.0,23.0,57,0.00,,,0.01,911.000000,,2013-02-05 23:21:00,
2013-02-05 13:32:00,74.0,58.0,-100.00,South,175,8.0,23.0,57,0.00,,,0.01,911.000000,,2013-02-05 23:32:00,
2013-02-05 14:02:00,75.0,58.0,-100.00,West,265,4.0,15.0,55,0.00,,,0.01,422.000000,,2013-02-06 00:02:00,
2013-02-05 14:11:00,75.0,58.0,-100.00,West,265,4.0,15.0,55,0.00,,,0.01,422.000000,,2013-02-06 00:11:00,
2013-02-05 14:21:00,75.0,58.0,-100.00,West,265,4.0,15.0,55,0.00,,,0.01,422.000000,,2013-02-06 00:21:00,
2013-02-05 14:31:00,75.0,58.0,-100.00,West,265,4.0,15.0,55,0.00,,,0.01,422.000000,,2013-02-06 00:31:00,
2013-02-05 15:02:00,74.0,54.0,-100.00,South,178,6.0,15.0,50,0.00,,,0.01,511.000000,,2013-02-06 01:02:00,
2013-02-05 15:11:00,74.0,54.0,-100.00,South,178,6.0,15.0,50,0.00,,,0.01,511.000000,,2013-02-06 01:11:00,
2013-02-05 15:21:00,74.0,54.0,-100.00,South,178,6.0,15.0,50,0.00,,,0.01,511.000000,,2013-02-06 01:21:00,
2013-02-05 15:31:00,74.0,54.0,-100.00,South,178,6.0,15.0,50,0.00,,,0.01,511.000000,,2013-02-06 01:31:00,
2013-02-05 16:01:00,75.0,57.0,-100.00,NNW,333,6.0,20.0,54,0.00,,,0.01,616.000000,,2013-02-06 02:01:00,
2013-02-05 16:11:00,75.0,57.0,-100.00,NNW,333,6.0,20.0,54,0.00,,,0.01,616.000000,,2013-02-06 02:11:00,
2013-02-05 16:21:00,75.0,57.0,-100.00,NNW,333,6.0,20.0,54,0.00,,,0.01,616.000000,,2013-02-06 02:21:00,
2013-02-05 16:31:00,75.0,57.0,-100.00,NNW,333,6.0,20.0,54,0.00,,,0.01,616.000000,,2013-02-06 02:31:00,
2013-02-05 16:52:00,75.0,56.0,-100.00,WNW,291,3.0,18.0,51,0.00,,,0.01,700.000000,,2013-02-06 02:52:00,
2013-02-05 17:02:00,75.0,56.0,-100.00,WNW,291,3.0,18.0,51,0.00,,,0.01,700.000000,,2013-02-06 03:02:00,
2013-02-05 17:12:00,75.0,56.0,-100.00,WNW,291,3.0,18.0,51,0.00,,,0.01,700.000000,,2013-02-06 03:12:00,
2013-02-05 17:21:00,75.0,56.0,-100.00,WNW,291,3.0,18.0,51,0.00,,,0.01,700.000000,,2013-02-06 03:21:00,
2013-02-05 17:31:00,75.0,56.0,-100.00,WNW,291,3.0,18.0,51,0.00,,,0.01,700.000000,,2013-02-06 03:31:00,
2013-02-05 18:02:00,71.0,58.0,-100.00,SSW,194,3.0,17.0,64,0.00,,,0.01,530.000000,,2013-02-06 04:02:00,
2013-02-05 18:11:00,71.0,58.0,-100.00,SSW,194,3.0,17.0,64,0.00,,,0.01,530.000000,,2013-02-06 04:11:00,
2013-02-05 18:21:00,71.0,58.0,-100.00,SSW,194,3.0,17.0,64,0.00,,,0.01,530.000000,,2013-02-06 04:21:00,
2013-02-05 18:31:00,71.0,58.0,-100.00,SSW,194,3.0,17.0,64,0.00,,,0.01,530.000000,,2013-02-06 04:31:00,
2013-02-05 19:01:00,65.0,57.0,-100.00,WSW,242,4.0,23.0,76,0.00,,,0.01,237.000000,,2013-02-06 05:01:00,
2013-02-05 19:12:00,65.0,57.0,-100.00,WSW,242,4.0,23.0,76,0.00,,,0.01,237.000000,,2013-02-06 05:12:00,
2013-02-05 19:22:00,65.0,57.0,-100.00,WSW,242,4.0,23.0,76,0.00,,,0.01,237.000000,,2013-02-06 05:22:00,
2013-02-05 19:31:00,65.0,57.0,-100.00,WSW,242,4.0,23.0,76,0.00,,,0.01,237.000000,,2013-02-06 05:31:00,
2013-02-05 20:01:00,68.0,58.0,-100.00,WNW,291,7.0,19.0,71,0.00,,,0.00,29.000000,,2013-02-06 06:01:00,
2013-02-05 20:11:00,68.0,58.0,-100.00,WNW,291,7.0,19.0,71,0.00,,,0.00,29.000000,,2013-02-06 06:11:00,
2013-02-05 20:21:00,68.0,58.0,-100.00,WNW,291,7.0,19.0,71,0.00,,,0.00,29.000000,,2013-02-06 06:21:00,
2013-02-05 20:31:00,68.0,58.0,-100.00,WNW,291,7.0,19.0,71,0.00,,,0.00,29.000000,,2013-02-06 06:31:00,
2013-02-05 21:01:00,64.0,62.0,-100.00,NNW,330,2.0,12.0,92,0.04,,,0.04,0.000000,,2013-02-06 07:01:00,
2013-02-05 21:11:00,64.0,62.0,-100.00,NNW,330,2.0,12.0,92,0.04,,,0.04,0.000000,,2013-02-06 07:11:00,
2013-02-05 21:21:00,64.0,62.0,-100.00,NNW,330,2.0,12.0,92,0.04,,,0.04,0.000000,,2013-02-06 07:21:00,
2013-02-05 21:32:00,64.0,62.0,-100.00,NNW,330,2.0,12.0,92,0.04,,,0.04,0.000000,,2013-02-06 07:32:00,
2013-02-05 22:01:00,66.0,61.0,-100.00,East,100,8.0,25.0,83,0.00,,,0.04,0.000000,,2013-02-06 08:01:00,
2013-02-05 22:11:00,66.0,61.0,-100.00,East,100,8.0,25.0,83,0.00,,,0.04,0.000000,,2013-02-06 08:11:00,
2013-02-05 22:21:00,66.0,61.0,-100.00,East,100,8.0,25.0,83,0.00,,,0.04,0.000000,,2013-02-06 08:21:00,
2013-02-05 22:31:00,66.0,61.0,-100.00,East,100,8.0,25.0,83,0.00,,,0.04,0.000000,,2013-02-06 08:31:00,
2013-02-05 23:01:00,67.0,58.0,-100.00,NE,50,11.0,31.0,73,0.00,,,0.04,0.000000,,2013-02-06 09:01:00,
2013-02-05 23:11:00,67.0,58.0,-100.00,NE,50,11.0,31.0,73,0.00,,,0.04,0.000000,,2013-02-06 09:11:00,
2013-02-05 23:21:00,67.0,58.0,-100.00,NE,50,11.0,31.0,73,0.00,,,0.04,0.000000,,2013-02-06 09:21:00,
2013-02-05 23:31:00,67.0,58.0,-100.00,NE,50,11.0,31.0,73,0.00,,,0.04,0.000000,,2013-02-06 09:31:00,